SAS987 EKCH-RKSI

Flight info

Callsign SAS987
Flight time N/A
Altitude 37000
Route SIMEG Z493 BILRA DCT UVIVI DCT BAREX DCT KELEL DCT KEKED DCT BADOR DCT LUGEB DCT UDROS UM859 KARDE UN644 ROLIN N644 ODILI/N0478F390 N644 LAGAS M747 SUBUT T916 LEYLA N161 GASBI/K0882F390 N161 SARIN/K0870S1190 A368 OSUPO/K0883S1250 A368 FKG W188 LIKMI W270 DKO W69 HUR B339 LADIX W34 VAPGU W100 ORAVA W201 UNSEK A326 DONVO G597 AGAVO/N0476F410 Y644 REBIT REBIT1Y
Aircraft A359/H-SDE2E3GHIJ3J4J5LM1ORWXY/LB1D1

Departure

Time 2026-04-26 12:33
Airport Copenhagen Kastrup Airport (EKCH)

Arrival

Time N/A
Airport Incheon International Airport (RKSI)
Time Latitude Longitude Altitude Speed Heading
2026-04-26 11:57 55.62362 12.65070 30 ft 0 kts 276°
2026-04-26 12:23 55.62361 12.65100 30 ft 4 kts 269°
2026-04-26 12:23 55.62364 12.65147 30 ft 4 kts 252°
2026-04-26 12:23 55.62376 12.65188 29 ft 4 kts 220°
2026-04-26 12:23 55.62392 12.65202 30 ft 0 kts 178°
2026-04-26 12:26 55.62363 12.65202 30 ft 11 kts 181°
2026-04-26 12:26 55.62282 12.65192 30 ft 12 kts 181°
2026-04-26 12:26 55.62197 12.65160 30 ft 13 kts 209°
2026-04-26 12:27 55.62118 12.65074 30 ft 14 kts 214°
2026-04-26 12:27 55.62033 12.64972 30 ft 15 kts 213°
2026-04-26 12:27 55.61936 12.64859 30 ft 18 kts 213°
2026-04-26 12:27 55.61832 12.64738 30 ft 18 kts 213°
2026-04-26 12:28 55.61722 12.64614 30 ft 19 kts 213°
2026-04-26 12:28 55.61610 12.64485 30 ft 20 kts 213°
2026-04-26 12:28 55.61493 12.64352 30 ft 20 kts 213°
2026-04-26 12:28 55.61372 12.64214 29 ft 21 kts 213°
2026-04-26 12:29 55.61250 12.64069 29 ft 21 kts 214°
2026-04-26 12:29 55.61124 12.63928 30 ft 21 kts 209°
2026-04-26 12:29 55.60876 12.63643 29 ft 22 kts 213°
2026-04-26 12:30 55.60748 12.63492 30 ft 22 kts 213°
2026-04-26 12:30 55.60622 12.63333 28 ft 22 kts 221°
2026-04-26 12:30 55.60517 12.63171 29 ft 1 kts 221°
2026-04-26 12:31 55.60448 12.63114 30 ft 10 kts 182°
2026-04-26 12:31 55.60394 12.63177 30 ft 10 kts 134°
2026-04-26 12:31 55.60350 12.63269 32 ft 9 kts 123°
2026-04-26 12:31 55.60351 12.63359 32 ft 8 kts 54°
2026-04-26 12:32 55.60462 12.63536 30 ft 48 kts 41°
2026-04-26 12:32 55.60872 12.64172 31 ft 108 kts 41°
2026-04-26 12:32 55.62418 12.66541 594 ft 155 kts 40°
2026-04-26 12:33 55.63229 12.67827 1163 ft 162 kts 39°
2026-04-26 12:33 55.64127 12.69221 1423 ft 182 kts 39°
2026-04-26 12:33 55.65135 12.70779 1651 ft 203 kts 39°
2026-04-26 12:33 55.66245 12.72451 2009 ft 217 kts 37°